Location: Fort Collins
(40.5850°N, 105.0840°W)
Time: 22:55:30
(UTC-06:00)

Daily predictions for brighter satellites

Satellite Brightness Start Highest point End
(mag) Time Altitude Azimuth Time Altitude Azimuth Time Altitude Azimuth
USA 234 4.5 20:48:58 10° E 20:52:55 17° ESE 20:56:51 10° SSE
Meteor 2-3 Rocket 3.7 20:49:15 10° S 20:54:51 71° E 21:00:26 10° NNE
Meteor 1-26 Rocket 4.5 20:49:03 10° N 20:54:55 84° W 21:00:48 10° S
Cosmos 1340 Rocket 2.8 20:54:22 10° S 20:58:17 66° E 21:02:17 10° NNE
Cosmos 2056 Rocket 4.0 20:54:01 10° SSE 20:58:42 36° ESE 21:03:22 10° NE
Cosmos 1844 Rocket 3.6 20:55:11 10° SSE 20:59:47 26° ESE 21:04:25 10° NE
Cosmos 1371 Rocket 4.2 20:55:27 10° S 21:00:36 53° ESE 21:05:45 10° NNE
Cosmos 1461 3.2 20:57:06 10° SSW 21:01:48 89° ESE 21:06:23 10° NNE
Cosmos 1939 Rocket 3.3 20:58:22 10° SE 21:02:01 42° ENE 21:05:43 10° N
Cosmos 1782 3.9 21:01:35 10° NNE 21:05:05 28° ENE 21:08:35 10° SE
Atlas Centaur 2 2.9 21:07:58 10° SSW 21:10:07 15° S 21:12:00 11° SE
SL-27 R/B 3.7 21:10:29 10° N 21:13:42 28° ENE 21:16:20 13° ESE
Cosmos 2263 Rocket 3.3 21:08:53 10° SW 21:14:22 50° WNW 21:19:53 10° NNE
Coronas F rocket 1.1 21:13:16 10° S 21:15:53 66° E 21:18:32 10° NNE
YAOGAN 6 4.1 21:14:37 12° ESE 21:16:52 21° ENE 21:19:33 10° NNE
Cosmos 1408 4.5 21:15:26 12° ESE 21:16:53 14° E 21:18:56 10° NE
SL-8 R/B 3.7 21:14:25 10° SW 21:19:10 63° SE 21:23:55 10° ENE
COS B Rocket 4.3 21:17:55 10° NNE 21:21:41 30° E 21:24:24 15° SE
CENTAUR R/B 3.2 21:14:58 10° NW 21:22:53 86° ENE 21:30:41 12° SE
deb Chang Zheng 4 3.6 21:21:19 10° NNE 21:25:43 71° ESE 21:30:08 10° S
Cosmos 1606 3.8 21:23:40 10° NNE 21:27:09 29° ENE 21:29:28 17° SE
NOSS 2-2 (D) 3.4 21:27:01 10° SSW 21:31:04 74° ESE 21:35:45 10° NE
Cosmos 2184 Rocket 4.0 21:25:25 10° S 21:31:34 90° W 21:37:47 10° N
Cosmos 1892 3.1 21:30:31 10° SSW 21:34:18 64° W 21:38:08 10° N
Cosmos 1908 Rocket 4.1 21:31:02 13° SSE 21:34:35 39° E 21:38:43 10° NNE
USA 245 4.2 21:35:53 19° ESE 21:37:05 24° ENE 21:39:59 10° NNE
Cosmos 1624 Rocket 4.0 21:32:51 10° SSW 21:38:07 87° WNW 21:43:28 10° NNE
Meteor 2-10 Rocket 4.1 21:33:30 10° NNW 21:39:18 70° W 21:44:58 10° S
Envisat 3.0 21:34:22 10° SSE 21:39:26 83° WSW 21:44:33 10° NNW
H-2A R/B 3.8 21:36:42 13° ESE 21:39:43 20° ENE 21:43:29 10° NNE
Cosmos 1733 Rocket 3.2 21:36:10 10° SSW 21:40:35 76° W 21:45:00 10° N
CZ-4 SHROUD 3.5 21:40:53 24° SE 21:42:24 49° ENE 21:45:26 10° N
Cosmos 1378 Rocket 4.2 21:38:52 10° N 21:42:55 38° ENE 21:45:10 22° SE
NOSS 2-2 (C) 3.7 21:41:40 10° SW 21:45:45 79° NW 21:50:30 10° NNE
ERBS 2.3 21:44:55 10° NW 21:48:24 88° NE 21:50:03 29° SE
Meteor 2-6 Rocket 4.3 21:42:39 10° N 21:48:40 87° E 21:53:52 14° S
CZ-3C R/B 4.1 21:34:45 10° SW 21:51:17 20° SSW 21:55:54 14° SSE
SPOT 1/Viking Rocket 3.8 21:51:07 21° SE 21:54:23 55° ENE 21:59:28 10° N
BREEZE-M DEB (TANK) 3.9 21:56:41 10° WNW 21:58:17 19° NNW 22:00:09 10° NE
Cosmos 407 Rocket 3.5 21:53:30 10° NNW 21:58:47 79° ENE 22:02:06 24° SSE
Cosmos 1238 Rocket 2.7 21:57:26 10° N 22:00:25 46° E 22:01:14 37° SE
Cosmos 1452 Rocket 3.5 21:56:46 10° S 22:01:55 59° ESE 22:07:06 10° NNE
SPOT 5 3.3 21:58:36 15° S 22:02:55 71° WSW 22:08:16 10° NNW
PSLV R/B 3.2 22:01:48 32° S 22:03:00 67° W 22:05:56 10° NNW
H-2A R/B 3.2 22:01:14 10° S 22:05:17 40° W 22:09:20 10° NNW
Cosmos 2084 3.9 22:08:44 33° ESE 22:08:44 33° ESE 22:11:49 10° NE
COSMOS 2406 3.8 22:03:19 10° NNW 22:08:54 54° WSW 22:13:05 18° S
Cosmos 1190 Rocket 4.2 22:04:17 10° NNW 22:09:27 67° WSW 22:12:48 22° S
Cosmos 1862 3.3 22:09:05 22° S 22:11:40 89° ESE 22:15:46 10° N
Intercosmos 25 3.6 22:11:43 38° ESE 22:12:21 41° E 22:15:28 10° NNE
MetOp-B 4.3 22:09:56 19° S 22:13:47 70° WSW 22:19:09 10° NNW
Cosmos 1140 Rocket 4.1 22:10:48 10° N 22:15:41 42° ENE 22:17:37 30° ESE
Terra 2.8 22:16:52 27° ESE 22:18:17 32° ENE 22:22:30 10° N
PSLV R/B 3.6 22:15:55 10° W 22:19:18 50° SSW 22:19:31 49° S
Cosmos 2218 Rocket 4.5 22:17:25 28° SE 22:20:07 43° E 22:26:06 10° NNE
Okean 2 Rocket 3.0 22:20:05 36° SSE 22:21:44 64° E 22:26:07 10° NNE
Nadezhda 3 Rocket 4.1 22:15:37 10° N 22:21:57 76° W 22:26:30 20° S
Abrixas rocket 4.5 22:20:24 10° W 22:22:31 16° SW 22:22:48 15° SW
ARGOS 3.1 22:20:05 29° SSE 22:22:54 86° ENE 22:28:18 10° NNW
BREEZE-M DEB (TANK) 3.3 22:12:54 10° WNW 22:24:42 77° NNE 22:26:27 35° ESE
ATLAS 5 CENTAUR R/B 3.1 22:18:57 10° NW 22:24:45 47° WSW 22:28:29 23° S
Cosmos 2278 Rocket 2.1 22:25:14 16° SSW 22:29:49 74° ESE 22:35:30 10° NNE
CZ-4C R/B 3.4 22:30:16 50° ESE 22:30:44 54° ENE 22:34:37 10° N
CZ-4B R/B 3.5 22:26:13 10° N 22:31:13 75° WNW 22:34:50 18° SSW
Cosmos 1825 2.7 22:29:25 27° SSW 22:31:19 58° W 22:35:06 10° N
Cosmos 1844 4.0 22:26:34 10° SSW 22:32:17 72° WNW 22:38:06 10° NNE
Elektron 3 4.2 22:32:43 10° NNW 22:35:38 65° NE 22:36:05 57° E
Cosmos 1850 Rocket 4.5 22:31:01 10° N 22:36:10 49° ENE 22:37:42 38° ESE
USA 234 3.1 22:30:03 10° NE 22:36:36 73° SE 22:43:06 10° SW
Cosmos 1833 Rocket 4.0 22:32:14 10° N 22:36:59 27° NE 22:39:00 22° E
Cosmos 2341 Rocket 4.2 22:31:20 13° SSW 22:37:02 70° W 22:43:18 10° N
Cosmos 1184 Rocket 3.2 22:37:23 50° SW 22:37:58 60° WNW 22:41:17 10° N
Cosmos 1727 Rocket 4.5 22:32:29 10° N 22:38:20 43° ENE 22:40:11 34° ESE
Cosmos 676 Rocket 4.3 22:34:03 10° NNW 22:39:10 60° WSW 22:41:20 33° S
Cosmos 1844 Rocket 3.8 22:38:04 10° SW 22:43:25 43° WNW 22:48:48 10° N
Cosmos 1959 Rocket 4.4 22:43:23 37° SSE 22:45:51 68° E 22:51:54 10° NNE
Cosmos 1954 Rocket 4.1 22:41:41 10° NNW 22:46:51 67° WSW 22:48:36 41° S
Cosmos 1782 Rocket 4.2 22:44:31 25° SSW 22:46:53 54° W 22:51:17 10° N
Cosmos 1174 4.0 22:44:17 10° NW 22:46:59 45° W 22:46:59 45° W
COSMOS 2487 2.5 22:44:10 10° NNW 22:47:48 72° WSW 22:47:49 72° WSW
Timation 2 Rocket 3.9 22:42:23 10° NNW 22:48:23 68° ENE 22:50:18 43° SE
Cosmos 2082 Rocket 2.9 22:44:27 10° N 22:49:52 42° ENE 22:51:28 34° E
Cosmos 1408 4.3 22:49:55 20° SW 22:51:47 31° WNW 22:55:05 10° NNW
Cosmos 1741 Rocket 4.0 22:48:55 10° NNW 22:54:08 68° ENE 22:55:12 53° SE
IGS 5A 3.4 22:54:28 66° E 22:54:39 67° ENE 22:58:48 10° N
CZ-4 R/B 4.4 22:53:40 10° N 22:58:14 52° WNW 23:00:45 24° SW
Cosmos 2297 3.6 22:58:48 50° SSE 23:00:10 66° ESE 23:05:51 10° NNE
APEX 3.4 23:03:19 71° ENE 23:03:19 71° ENE 23:07:42 10° NNE
Cosmos 1975 Rocket 4.1 22:59:24 10° NNW 23:03:25 38° W 23:04:34 32° SW
DNEPR-1 R/B 3.7 22:58:56 10° NNW 23:04:22 76° NE 23:04:57 65° ESE
SL-8 Rocket 4.2 23:01:45 29° SSW 23:05:09 71° W 23:11:25 10° N
CARTOSAT-1 3.4 23:04:52 74° SSW 23:05:10 79° WSW 23:09:30 10° NNW
Cosmos 1242 Rocket 3.7 23:08:22 10° NNW 23:11:41 37° W 23:11:41 37° W
Okean 1 4.3 23:11:20 10° N 23:14:26 37° NE 23:14:26 37° NE
Cosmos 1536 Rocket 3.5 23:11:46 10° N 23:16:12 85° NE 23:16:12 85° NE
H-2A R/B 2.5 23:17:21 45° SSW 23:18:40 57° W 23:23:58 10° NNW
USA 229 DEB 4.0 23:13:45 10° NNW 23:20:48 61° NE 23:23:13 41° ESE
USA 229 4.0 23:13:51 10° NNW 23:20:54 60° NE 23:23:20 41° ESE
Meteor 2-19 Rocket 4.3 23:21:47 56° S 23:23:11 84° E 23:29:20 10° N
Spot 2 4.1 23:19:37 10° NNE 23:23:46 77° N 23:23:46 77° N
Cosmos 2151 Rocket 4.0 23:26:22 53° WSW 23:26:49 56° W 23:31:17 10° N
Meteor 1-20 Rocket 4.1 23:36:24 69° SSW 23:37:06 85° W 23:42:42 10° N
Meteor 1-25 Rocket 4.4 23:38:22 53° SW 23:39:40 70° W 23:45:31 10° N
Cosmos 2369 Rocket 4.1 23:43:16 16° ENE 23:43:16 16° ENE 23:45:13 10° ENE
ALOS 2 4.2 23:44:55 26° NE 23:44:55 26° NE 23:48:02 10° NNE
ASTEX 1 3.7 23:46:52 10° N 23:51:43 58° W 23:51:57 57° W
Terra 3.3 23:55:45 26° W 23:56:01 26° W 00:00:00 10° NW
